TimeMST,TemperatureF,Dew PointF,Humidity,Sea Level PressureIn,VisibilityMPH,Wind Direction,Wind SpeedMPH,Gust SpeedMPH,PrecipitationIn,Events,Conditions,WindDirDegrees,DateUTC
12:16 AM,30.2,28.4,93,30.31,-9999.0,Calm,Calm,-,N/A,,Unknown,0,2013-01-25 07:16:00
12:36 AM,30.2,28.4,93,30.31,-9999.0,ESE,3.5,-,N/A,,Overcast,120,2013-01-25 07:36:00
12:56 AM,30.2,28.4,93,30.31,-9999.0,Calm,Calm,-,N/A,,Overcast,0,2013-01-25 07:56:00
1:16 AM,30.2,28.4,93,30.30,-9999.0,Calm,Calm,-,N/A,,Overcast,0,2013-01-25 08:16:00
1:36 AM,30.2,28.4,93,30.30,-9999.0,Calm,Calm,-,N/A,,Overcast,0,2013-01-25 08:36:00
1:56 AM,30.2,28.4,93,30.30,-9999.0,Calm,Calm,-,N/A,,Overcast,0,2013-01-25 08:56:00
2:16 AM,32.0,28.4,87,30.30,-9999.0,East,4.6,-,N/A,,Unknown,80,2013-01-25 09:16:00
2:36 AM,32.0,28.4,87,30.30,-9999.0,East,4.6,-,N/A,,Unknown,80,2013-01-25 09:36:00
2:56 AM,32.0,30.2,93,30.30,-9999.0,Calm,Calm,-,N/A,,Unknown,0,2013-01-25 09:56:00
3:16 AM,30.2,28.4,93,30.29,-9999.0,West,3.5,-,N/A,,Unknown,260,2013-01-25 10:16:00
3:35 AM,30.2,28.4,93,30.28,-9999.0,Calm,Calm,-,N/A,,Unknown,0,2013-01-25 10:35:00
3:56 AM,30.2,28.4,93,30.28,-9999.0,Calm,Calm,-,N/A,,Unknown,0,2013-01-25 10:56:00
4:15 AM,30.2,28.4,93,30.28,-9999.0,Calm,Calm,-,N/A,,Overcast,0,2013-01-25 11:15:00
4:36 AM,30.2,28.4,93,30.28,-9999.0,NNE,3.5,-,N/A,,Overcast,20,2013-01-25 11:36:00
4:56 AM,30.2,28.4,93,30.27,-9999.0,Calm,Calm,-,N/A,,Overcast,0,2013-01-25 11:56:00
5:16 AM,30.2,28.4,93,30.28,-9999.0,Calm,Calm,-,N/A,,Overcast,0,2013-01-25 12:16:00
5:36 AM,30.2,28.4,93,30.28,-9999.0,Calm,Calm,-,N/A,,Unknown,0,2013-01-25 12:36:00
5:55 AM,30.2,28.4,93,30.29,-9999.0,Calm,Calm,-,N/A,,Unknown,0,2013-01-25 12:55:00
6:36 AM,30.2,28.4,93,30.29,-9999.0,Calm,Calm,-,N/A,,Unknown,0,2013-01-25 13:36:00
6:56 AM,30.2,28.4,93,30.30,-9999.0,Calm,Calm,-,N/A,,Overcast,0,2013-01-25 13:56:00
7:16 AM,30.2,28.4,93,30.31,-9999.0,NNE,3.5,-,N/A,,Unknown,30,2013-01-25 14:16:00
7:36 AM,30.2,28.4,93,30.31,-9999.0,Calm,Calm,-,N/A,,Unknown,0,2013-01-25 14:36:00
7:56 AM,30.2,28.4,93,30.31,-9999.0,Calm,Calm,-,N/A,,Unknown,0,2013-01-25 14:56:00
8:16 AM,30.2,28.4,93,30.30,-9999.0,Calm,Calm,-,N/A,,Unknown,0,2013-01-25 15:16:00
8:36 AM,30.2,28.4,93,30.30,-9999.0,Calm,Calm,-,N/A,,Unknown,0,2013-01-25 15:36:00
8:56 AM,30.2,26.6,86,30.30,-9999.0,Calm,Calm,-,N/A,,Overcast,0,2013-01-25 15:56:00
9:16 AM,32.0,28.4,87,30.29,-9999.0,Calm,Calm,-,N/A,,Overcast,0,2013-01-25 16:16:00
9:36 AM,32.0,28.4,87,30.30,-9999.0,Calm,Calm,-,N/A,,Overcast,0,2013-01-25 16:36:00
9:56 AM,32.0,28.4,87,30.30,-9999.0,Calm,Calm,-,N/A,,Unknown,0,2013-01-25 16:56:00
10:16 AM,33.8,30.2,87,30.30,-9999.0,Calm,Calm,-,N/A,,Overcast,0,2013-01-25 17:16:00
10:36 AM,33.8,30.2,87,30.30,-9999.0,Calm,Calm,-,N/A,,Overcast,0,2013-01-25 17:36:00
10:56 AM,33.8,30.2,87,30.29,-9999.0,Calm,Calm,-,N/A,,Overcast,0,2013-01-25 17:56:00
11:16 AM,35.6,30.2,81,30.29,-9999.0,Calm,Calm,-,N/A,,Overcast,0,2013-01-25 18:16:00
11:36 AM,35.6,30.2,81,30.27,-9999.0,Calm,Calm,-,N/A,,Overcast,0,2013-01-25 18:36:00
11:56 AM,35.6,30.2,81,30.26,-9999.0,Calm,Calm,-,N/A,,Overcast,0,2013-01-25 18:56:00
12:15 PM,37.4,30.2,75,30.25,-9999.0,Calm,Calm,-,N/A,,Overcast,0,2013-01-25 19:15:00
12:36 PM,37.4,30.2,75,30.24,-9999.0,Calm,Calm,-,N/A,,Overcast,0,2013-01-25 19:36:00
12:56 PM,35.6,30.2,81,30.24,-9999.0,Calm,Calm,-,N/A,,Overcast,0,2013-01-25 19:56:00
1:16 PM,35.6,30.2,81,30.23,-9999.0,Calm,Calm,-,N/A,,Overcast,0,2013-01-25 20:16:00
1:36 PM,35.6,30.2,81,30.22,-9999.0,Calm,Calm,-,N/A,,Overcast,0,2013-01-25 20:36:00
1:56 PM,35.6,30.2,81,30.22,-9999.0,Calm,Calm,-,N/A,,Overcast,0,2013-01-25 20:56:00
2:16 PM,35.6,30.2,81,30.21,-9999.0,Calm,Calm,-,N/A,,Overcast,0,2013-01-25 21:16:00
2:36 PM,35.6,30.2,81,30.21,-9999.0,Calm,Calm,-,N/A,,Overcast,0,2013-01-25 21:36:00
2:56 PM,35.6,30.2,81,30.22,-9999.0,Calm,Calm,-,N/A,,Overcast,0,2013-01-25 21:56:00
3:16 PM,35.6,30.2,81,30.22,-9999.0,Calm,Calm,-,N/A,,Overcast,0,2013-01-25 22:16:00
3:36 PM,35.6,32.0,87,30.21,-9999.0,Calm,Calm,-,N/A,,Overcast,0,2013-01-25 22:36:00
3:56 PM,35.6,32.0,87,30.21,-9999.0,Calm,Calm,-,N/A,,Overcast,0,2013-01-25 22:56:00
4:16 PM,35.6,30.2,81,30.21,-9999.0,Calm,Calm,-,N/A,,Overcast,0,2013-01-25 23:16:00
4:36 PM,35.6,32.0,87,30.21,-9999.0,Calm,Calm,-,N/A,,Overcast,0,2013-01-25 23:36:00
4:56 PM,35.6,32.0,87,30.21,-9999.0,Calm,Calm,-,N/A,,Overcast,0,2013-01-25 23:56:00
5:16 PM,33.8,32.0,93,30.21,-9999.0,Calm,Calm,-,N/A,,Unknown,0,2013-01-26 00:16:00
5:35 PM,35.6,32.0,87,30.21,-9999.0,Calm,Calm,-,N/A,,Overcast,0,2013-01-26 00:35:00
5:56 PM,33.8,32.0,93,30.21,-9999.0,Calm,Calm,-,N/A,,Overcast,0,2013-01-26 00:56:00
6:16 PM,33.8,30.2,87,30.21,-9999.0,North,3.5,-,N/A,,Overcast,360,2013-01-26 01:16:00
6:35 PM,33.8,32.0,93,30.21,-9999.0,Calm,Calm,-,N/A,,Overcast,0,2013-01-26 01:35:00
6:56 PM,33.8,32.0,93,30.21,-9999.0,Calm,Calm,-,N/A,,Overcast,0,2013-01-26 01:56:00
7:16 PM,33.8,32.0,93,30.21,-9999.0,Calm,Calm,-,N/A,,Unknown,0,2013-01-26 02:16:00
7:35 PM,33.8,30.2,87,30.20,-9999.0,Calm,Calm,-,N/A,,Unknown,0,2013-01-26 02:35:00
7:56 PM,33.8,32.0,93,30.20,-9999.0,Calm,Calm,-,N/A,,Unknown,0,2013-01-26 02:56:00
8:16 PM,33.8,32.0,93,30.20,-9999.0,Calm,Calm,-,N/A,,Overcast,0,2013-01-26 03:16:00
8:36 PM,33.8,32.0,93,30.20,-9999.0,Calm,Calm,-,N/A,,Overcast,0,2013-01-26 03:36:00
8:56 PM,33.8,32.0,93,30.20,-9999.0,Calm,Calm,-,N/A,,Unknown,0,2013-01-26 03:56:00
9:16 PM,33.8,32.0,93,30.20,-9999.0,Calm,Calm,-,N/A,,Unknown,0,2013-01-26 04:16:00
9:36 PM,33.8,32.0,93,30.19,-9999.0,Calm,Calm,-,N/A,,Unknown,0,2013-01-26 04:36:00
9:55 PM,33.8,32.0,93,30.20,-9999.0,Calm,Calm,-,N/A,,Unknown,0,2013-01-26 04:55:00
10:15 PM,33.8,32.0,93,30.20,-9999.0,Calm,Calm,-,N/A,,Unknown,0,2013-01-26 05:15:00
10:36 PM,33.8,32.0,93,30.20,-9999.0,Calm,Calm,-,N/A,,Light Drizzle,0,2013-01-26 05:36:00
10:56 PM,33.8,32.0,93,30.19,-9999.0,Calm,Calm,-,N/A,,Unknown,0,2013-01-26 05:56:00
11:16 PM,33.8,32.0,93,30.19,-9999.0,Calm,Calm,-,N/A,,Overcast,0,2013-01-26 06:16:00
11:35 PM,33.8,32.0,93,30.19,-9999.0,Calm,Calm,-,N/A,,Overcast,0,2013-01-26 06:35:00
11:56 PM,33.8,32.0,93,30.18,-9999.0,Calm,Calm,-,N/A,,Overcast,0,2013-01-26 06:56:00